TimeCST,TemperatureF,Dew PointF,Humidity,Sea Level PressureIn,VisibilityMPH,Wind Direction,Wind SpeedMPH,Gust SpeedMPH,PrecipitationIn,Events,Conditions,WindDirDegrees,DateUTC
12:15 AM,27.7,21.0,76,30.22,10.0,NNW,6.9,-,N/A,,Scattered Clouds,330,2013-11-26 06:15:00
12:35 AM,27.9,20.8,75,30.22,10.0,NNW,6.9,-,N/A,,Clear,330,2013-11-26 06:35:00
12:55 AM,26.6,20.3,77,30.22,10.0,NNW,6.9,-,N/A,,Clear,330,2013-11-26 06:55:00
1:15 AM,26.1,20.1,78,30.22,10.0,NNW,9.2,-,N/A,,Clear,330,2013-11-26 07:15:00
1:35 AM,25.5,19.8,79,30.22,10.0,NNW,6.9,-,N/A,,Clear,330,2013-11-26 07:35:00
1:55 AM,24.8,19.4,80,30.22,10.0,NNW,6.9,-,N/A,,Clear,330,2013-11-26 07:55:00
2:15 AM,24.8,19.4,80,30.22,10.0,NNW,6.9,-,N/A,,Clear,330,2013-11-26 08:15:00
2:35 AM,24.6,19.4,81,30.22,10.0,NNW,6.9,-,N/A,,Clear,330,2013-11-26 08:35:00
2:55 AM,25.5,19.8,79,30.23,10.0,NNW,6.9,-,N/A,,Clear,330,2013-11-26 08:55:00
3:15 AM,25.7,20.1,79,30.24,10.0,NNW,6.9,-,N/A,,Clear,330,2013-11-26 09:15:00
3:35 AM,26.4,20.3,78,30.23,10.0,NW,8.1,-,N/A,,Clear,320,2013-11-26 09:35:00
3:55 AM,25.5,19.9,79,30.23,10.0,NNW,8.1,-,N/A,,Clear,330,2013-11-26 09:55:00
4:15 AM,25.5,20.1,80,30.24,10.0,NNW,9.2,-,N/A,,Clear,330,2013-11-26 10:15:00
4:35 AM,26.8,20.3,77,30.24,10.0,NNW,12.7,-,N/A,,Clear,330,2013-11-26 10:35:00
4:55 AM,26.4,20.3,78,30.25,10.0,NW,11.5,-,N/A,,Scattered Clouds,320,2013-11-26 10:55:00
5:15 AM,27.1,20.3,75,30.26,10.0,NW,12.7,-,N/A,,Mostly Cloudy,320,2013-11-26 11:15:00
5:35 AM,26.2,19.9,77,30.26,10.0,NW,9.2,-,N/A,,Mostly Cloudy,320,2013-11-26 11:35:00
5:55 AM,26.8,20.3,77,30.27,10.0,NW,9.2,-,N/A,,Overcast,320,2013-11-26 11:55:00
6:15 AM,27.5,20.7,75,30.27,10.0,NNW,11.5,16.1,N/A,,Overcast,330,2013-11-26 12:15:00
6:35 AM,28.4,20.7,73,30.28,10.0,NNW,18.4,21.9,N/A,,Overcast,340,2013-11-26 12:35:00
6:55 AM,28.4,21.0,74,30.29,10.0,NNW,13.8,23.0,N/A,,Overcast,340,2013-11-26 12:55:00
7:15 AM,28.8,20.3,71,30.30,10.0,North,20.7,31.1,N/A,,Overcast,350,2013-11-26 13:15:00
7:35 AM,28.2,19.9,71,30.31,10.0,North,13.8,21.9,N/A,,Mostly Cloudy,350,2013-11-26 13:35:00
7:55 AM,27.7,19.9,73,30.32,10.0,North,11.5,16.1,N/A,,Mostly Cloudy,350,2013-11-26 13:55:00
8:15 AM,27.5,19.4,72,30.34,10.0,North,11.5,17.3,N/A,,Overcast,350,2013-11-26 14:15:00
8:35 AM,27.3,18.9,70,30.35,10.0,North,11.5,18.4,N/A,,Scattered Clouds,350,2013-11-26 14:35:00
8:55 AM,27.7,19.0,70,30.37,10.0,North,16.1,-,N/A,,Scattered Clouds,350,2013-11-26 14:55:00
9:15 AM,27.7,18.1,67,30.37,10.0,North,19.6,24.2,N/A,,Mostly Cloudy,360,2013-11-26 15:15:00
9:35 AM,27.0,17.1,66,30.39,10.0,North,18.4,24.2,N/A,,Scattered Clouds,350,2013-11-26 15:35:00
9:55 AM,27.5,16.2,62,30.39,10.0,North,19.6,26.5,N/A,,Scattered Clouds,350,2013-11-26 15:55:00
10:15 AM,27.7,15.3,60,30.40,10.0,NNW,16.1,25.3,N/A,,Scattered Clouds,340,2013-11-26 16:15:00
10:35 AM,27.1,14.2,58,30.41,10.0,North,16.1,27.6,N/A,,Clear,350,2013-11-26 16:35:00
10:55 AM,27.5,12.7,54,30.41,10.0,North,17.3,26.5,N/A,,Clear,350,2013-11-26 16:55:00
11:15 AM,28.2,12.9,53,30.41,10.0,North,16.1,24.2,N/A,,Clear,350,2013-11-26 17:15:00
11:35 AM,28.2,12.9,53,30.41,10.0,NNW,17.3,25.3,N/A,,Scattered Clouds,340,2013-11-26 17:35:00
11:55 AM,27.9,12.0,52,30.41,10.0,NNW,17.3,26.5,N/A,,Scattered Clouds,340,2013-11-26 17:55:00
12:15 PM,28.2,8.8,44,30.41,10.0,NNW,19.6,28.8,N/A,,Clear,340,2013-11-26 18:15:00
12:35 PM,28.2,8.2,43,30.40,10.0,NNW,18.4,27.6,N/A,,Clear,330,2013-11-26 18:35:00
12:55 PM,28.0,6.6,40,30.39,10.0,NNW,21.9,31.1,N/A,,Clear,340,2013-11-26 18:55:00
1:15 PM,28.6,7.3,41,30.39,10.0,North,19.6,24.2,N/A,,Clear,350,2013-11-26 19:15:00
1:35 PM,28.6,4.8,36,30.38,10.0,North,19.6,26.5,N/A,,Clear,350,2013-11-26 19:35:00
1:55 PM,29.3,4.6,35,30.38,10.0,NNW,15.0,25.3,N/A,,Clear,340,2013-11-26 19:55:00
2:15 PM,29.3,4.1,34,30.37,10.0,NNW,17.3,25.3,N/A,,Clear,340,2013-11-26 20:15:00
2:35 PM,29.1,3.7,34,30.37,10.0,North,19.6,24.2,N/A,,Clear,360,2013-11-26 20:35:00
2:55 PM,28.4,3.6,35,30.37,10.0,NNW,19.6,29.9,N/A,,Clear,330,2013-11-26 20:55:00
3:15 PM,28.6,3.6,34,30.37,10.0,NNW,18.4,27.6,N/A,,Clear,340,2013-11-26 21:15:00
3:35 PM,28.4,4.5,36,30.37,10.0,NNW,16.1,26.5,N/A,,Clear,340,2013-11-26 21:35:00
3:55 PM,28.4,5.0,37,30.37,10.0,NNW,16.1,25.3,N/A,,Clear,340,2013-11-26 21:55:00
4:15 PM,27.7,5.9,40,30.37,10.0,North,15.0,20.7,N/A,,Clear,350,2013-11-26 22:15:00
4:35 PM,27.1,6.8,42,30.37,10.0,North,12.7,16.1,N/A,,Clear,350,2013-11-26 22:35:00
4:55 PM,26.1,7.3,45,30.37,10.0,North,11.5,19.6,N/A,,Clear,350,2013-11-26 22:55:00
5:15 PM,25.0,7.3,47,30.38,10.0,North,10.4,17.3,N/A,,Clear,350,2013-11-26 23:15:00
5:35 PM,23.9,8.2,51,30.38,10.0,North,9.2,-,N/A,,Clear,350,2013-11-26 23:35:00
5:55 PM,23.0,8.6,54,30.39,10.0,North,8.1,-,N/A,,Clear,350,2013-11-26 23:55:00
6:15 PM,22.3,8.6,56,30.39,10.0,NNW,6.9,-,N/A,,Clear,340,2013-11-27 00:15:00
6:35 PM,20.3,8.4,60,30.39,10.0,NW,4.6,-,N/A,,Clear,320,2013-11-27 00:35:00
6:55 PM,20.3,8.4,60,30.39,10.0,NNW,5.8,-,N/A,,Clear,340,2013-11-27 00:55:00
7:15 PM,19.9,8.6,61,30.39,10.0,NNW,5.8,-,N/A,,Clear,340,2013-11-27 01:15:00
7:35 PM,19.0,8.4,63,30.39,10.0,North,4.6,-,N/A,,Clear,350,2013-11-27 01:35:00
7:55 PM,14.2,6.8,73,30.40,10.0,Calm,Calm,-,N/A,,Clear,0,2013-11-27 01:55:00
8:15 PM,13.1,6.4,75,30.41,10.0,Calm,Calm,-,N/A,,Clear,0,2013-11-27 02:15:00
8:35 PM,14.4,7.5,74,30.40,10.0,Calm,Calm,-,N/A,,Clear,0,2013-11-27 02:35:00
8:55 PM,13.3,6.8,75,30.40,10.0,Calm,Calm,-,N/A,,Clear,0,2013-11-27 02:55:00
9:15 PM,12.4,5.9,75,30.41,10.0,Calm,Calm,-,N/A,,Clear,0,2013-11-27 03:15:00
9:35 PM,10.9,5.7,79,30.41,10.0,Calm,Calm,-,N/A,,Clear,0,2013-11-27 03:35:00
9:55 PM,12.4,6.8,78,30.41,10.0,Calm,Calm,-,N/A,,Clear,0,2013-11-27 03:55:00
10:15 PM,11.7,6.4,80,30.41,10.0,Calm,Calm,-,N/A,,Clear,0,2013-11-27 04:15:00
10:35 PM,9.9,4.5,79,30.41,10.0,Calm,Calm,-,N/A,,Clear,0,2013-11-27 04:35:00
10:55 PM,9.1,4.8,83,30.41,10.0,Calm,Calm,-,N/A,,Clear,0,2013-11-27 04:55:00
11:15 PM,9.3,4.5,81,30.41,10.0,Calm,Calm,-,N/A,,Clear,0,2013-11-27 05:15:00
11:35 PM,9.9,5.5,83,30.41,10.0,NNW,4.6,-,N/A,,Clear,340,2013-11-27 05:35:00
11:55 PM,11.1,5.9,80,30.41,10.0,NNW,3.5,-,N/A,,Clear,330,2013-11-27 05:55:00